Unalakleet, AK

2:27 PM AKST on January 20, 2018 (GMT -0900)
Unalakleet

Weather History for PAUN - December, 2012

Change the Weather History Date:

Friday, December 7, 2012

  Actual Average Record
Temperature  
Mean Temperature -16 °F -  
Max Temperature -7 °F 8 °F 46 °F (2013)
Min Temperature -25 °F -3 °F -38 °F (1968)
Degree Days  
Heating Degree Days 81    
Moisture  
Dew Point -25 °F    
Average Humidity 53    
Maximum Humidity 70    
Minimum Humidity 41    
Precipitation  
Precipitation 0.00 in - - ()
Sea Level Pressure  
Sea Level Pressure 30.16 in    
Wind  
Wind Speed 3 mph (SE)    
Max Wind Speed 10 mph    
Max Gust Speed -    
Visibility 10 miles    
Events      
Averages and records for this station are not official NWS values.
T = Trace of Precipitation, MM = Missing Value Source: NWS Daily Summary

Daily Weather History Graph

Daily Weather History Graph

Search for Another Location

Airport or City:

Trip Planner

Search our weather history database for the weather conditions in past years. The results will help you decide how hot, cold, wet, or windy it might be!

Date:

Astronomy

Dec. 07, 2012 Rise Set
Actual Time 11:14 AM AKST 3:55 PM AKST
Civil Twilight 10:01 AM AKST 5:08 PM AKST
Nautical Twilight 8:54 AM AKST 6:14 PM AKST
Astronomical Twilight 7:56 AM AKST 7:13 PM AKST
Moon 2:37 AM AKST (12/7) 1:56 PM AKST (12/7)
Length of Visible Light 7h 06m
Length of Day
4h 40m
Last Quarter, 37% of the Moon is Illuminated
Dec 7
Last Quarter
Dec 12
New
Dec 19
First Quarter
Dec 28
Full
Jan 4
Last Quarter

Hourly Weather History & Observations

Time (AKST) Temp. Windchill Dew Point Humidity Pressure Visibility Wind Dir Wind Speed Gust Speed Precip Events Conditions
12:16 AM -23.8 °F -35.0 °F - N/A% 30.20 in 10.0 mi SE 3.5 mph - N/A   Clear
12:36 AM -23.8 °F - - N/A% 30.20 in 10.0 mi Calm Calm - N/A   Clear
12:56 AM -20.2 °F -35.5 °F - N/A% 30.20 in 10.0 mi SSE 5.8 mph - N/A   Clear
1:16 AM -23.8 °F -35.0 °F - N/A% 30.20 in 10.0 mi SSE 3.5 mph - N/A   Clear
1:36 AM -23.8 °F -39.8 °F - N/A% 30.20 in 10.0 mi SE 5.8 mph - N/A   Clear
1:56 AM -23.8 °F -35.0 °F - N/A% 30.20 in 10.0 mi ESE 3.5 mph - N/A   Clear
2:16 AM -23.8 °F - - N/A% 30.21 in 10.0 mi Calm Calm - N/A   Clear
2:36 AM -23.8 °F -37.7 °F - N/A% 30.21 in 10.0 mi ESE 4.6 mph - N/A   Clear
2:56 AM -22.0 °F -33.0 °F - N/A% 30.20 in 10.0 mi ESE 3.5 mph - N/A   Clear
3:16 AM -20.2 °F -35.5 °F - N/A% 30.20 in 10.0 mi SE 5.8 mph - N/A   Clear
3:36 AM -22.0 °F -37.7 °F - N/A% 30.20 in 10.0 mi SE 5.8 mph - N/A   Clear
3:56 AM -23.8 °F - - N/A% 30.20 in 10.0 mi Calm Calm - N/A   Clear
4:16 AM -23.8 °F - - N/A% 30.20 in 10.0 mi Calm Calm - N/A   Clear
4:36 AM -23.8 °F -41.6 °F - N/A% 30.20 in 10.0 mi SSE 6.9 mph - N/A   Clear
4:56 AM -23.8 °F - - N/A% 30.19 in 10.0 mi Calm Calm - N/A   Clear
5:16 AM -23.8 °F -37.7 °F - N/A% 30.19 in 10.0 mi SE 4.6 mph - N/A   Clear
5:36 AM -25.6 °F -39.8 °F - N/A% 30.18 in 10.0 mi SSE 4.6 mph - N/A   Clear
5:56 AM -23.8 °F -35.0 °F - N/A% 30.18 in 10.0 mi SE 3.5 mph - N/A   Clear
6:16 AM -23.8 °F -35.0 °F - N/A% 30.18 in 10.0 mi SSE 3.5 mph - N/A   Clear
6:36 AM -23.8 °F - - N/A% 30.18 in 10.0 mi Calm Calm - N/A   Clear
6:56 AM -23.8 °F -37.7 °F - N/A% 30.18 in 10.0 mi ESE 4.6 mph - N/A   Clear
7:16 AM -20.2 °F -35.5 °F - N/A% 30.18 in 10.0 mi ESE 5.8 mph - N/A   Clear
7:36 AM -23.8 °F - - N/A% 30.18 in 10.0 mi Calm Calm - N/A   Clear
7:56 AM -23.8 °F - - N/A% 30.18 in 10.0 mi Calm Calm - N/A   Clear
8:16 AM -23.8 °F -35.0 °F - N/A% 30.18 in 9.0 mi SE 3.5 mph - N/A   Clear
8:36 AM -25.6 °F - - N/A% 30.18 in 10.0 mi Calm Calm - N/A   Clear
8:56 AM -23.8 °F - - N/A% 30.18 in 10.0 mi Calm Calm - N/A   Clear
9:16 AM -23.8 °F -39.8 °F - N/A% 30.18 in 10.0 mi SE 5.8 mph - N/A   Clear
9:36 AM -23.8 °F -41.6 °F - N/A% 30.17 in 10.0 mi SE 6.9 mph - N/A   Clear
9:56 AM -20.2 °F -35.5 °F - N/A% 30.18 in 10.0 mi SE 5.8 mph - N/A   Clear
10:16 AM -20.2 °F - - N/A% 30.18 in 10.0 mi Calm Calm - N/A   Clear
10:36 AM -22.0 °F - - N/A% 30.18 in 10.0 mi Calm Calm - N/A   Clear
10:56 AM -14.8 °F -24.8 °F -25.6 °F 58% 30.19 in 10.0 mi ESE 3.5 mph - N/A   Clear
11:16 AM -22.0 °F -37.7 °F - N/A% 30.19 in 10.0 mi SE 5.8 mph - N/A   Clear
11:36 AM -22.0 °F - - N/A% 30.18 in 10.0 mi Calm Calm - N/A   Clear
11:56 AM -18.4 °F -31.4 °F - N/A% 30.19 in 10.0 mi SE 4.6 mph - N/A   Clear
12:16 PM -18.4 °F -33.4 °F -29.2 °F 58% 30.19 in 10.0 mi SSE 5.8 mph - N/A   Clear
12:36 PM -20.2 °F -30.9 °F - N/A% 30.19 in 10.0 mi SE 3.5 mph - N/A   Clear
12:56 PM -16.6 °F -31.3 °F - N/A% 30.18 in 10.0 mi ESE 5.8 mph - N/A   Clear
1:16 PM -16.6 °F -26.8 °F -23.8 °F 70% 30.18 in 10.0 mi SE 3.5 mph - N/A   Clear
1:36 PM -16.6 °F -26.8 °F -29.2 °F 53% 30.17 in 10.0 mi SE 3.5 mph - N/A   Clear
1:56 PM -20.2 °F -33.5 °F - N/A% 30.17 in 10.0 mi ESE 4.6 mph - N/A   Clear
2:16 PM -18.4 °F -28.9 °F - N/A% 30.16 in 10.0 mi SE 3.5 mph - N/A   Clear
2:36 PM -14.8 °F - -25.6 °F 58% 30.16 in 10.0 mi Calm Calm - N/A   Clear
2:56 PM -18.4 °F - - N/A% 30.16 in 10.0 mi Calm Calm - N/A   Clear
3:16 PM -18.4 °F - - N/A% 30.15 in 10.0 mi Calm Calm - N/A   Clear
3:36 PM -16.6 °F - -27.4 °F 58% 30.15 in 10.0 mi Calm Calm - N/A   Clear
3:56 PM -16.6 °F - -29.2 °F 53% 30.15 in 10.0 mi Calm Calm - N/A   Clear
4:16 PM -16.6 °F - -27.4 °F 58% 30.14 in 10.0 mi Calm Calm - N/A   Clear
4:36 PM -16.6 °F - - N/A% 30.14 in 10.0 mi Calm Calm - N/A   Clear
4:56 PM -14.8 °F -29.1 °F -27.4 °F 53% 30.14 in 10.0 mi SE 5.8 mph - N/A   Clear
5:16 PM -14.8 °F -29.1 °F -27.4 °F 53% 30.13 in 10.0 mi East 5.8 mph - N/A   Clear
5:36 PM -9.4 °F -20.9 °F -20.2 °F 59% 30.12 in 10.0 mi North 4.6 mph - N/A   Clear
5:56 PM -11.2 °F - -25.6 °F 49% 30.13 in 10.0 mi Calm Calm - N/A   Clear
6:16 PM -13.0 °F -28.6 °F -25.6 °F 53% 30.13 in 10.0 mi ESE 6.9 mph - N/A   Clear
6:36 PM -13.0 °F -31.3 °F -25.6 °F 53% 30.13 in 10.0 mi East 9.2 mph - N/A   Clear
6:56 PM -11.2 °F -27.8 °F -23.8 °F 54% 30.13 in 10.0 mi ESE 8.1 mph - N/A   Clear
7:16 PM -13.0 °F -30.0 °F -25.6 °F 53% 30.13 in 10.0 mi ESE 8.1 mph - N/A   Clear
7:36 PM -11.2 °F -27.8 °F -25.6 °F 49% 30.12 in 10.0 mi East 8.1 mph - N/A   Clear
7:56 PM -7.6 °F -25.7 °F -22.0 °F 50% 30.12 in 10.0 mi East 10.4 mph - N/A   Clear
8:16 PM -9.4 °F -26.8 °F -25.6 °F 45% 30.12 in 10.0 mi East 9.2 mph - N/A   Clear
8:36 PM -9.4 °F -22.7 °F -22.0 °F 54% 30.11 in 10.0 mi East 5.8 mph - N/A   Clear
8:56 PM -7.6 °F -25.7 °F -22.0 °F 50% 30.11 in 10.0 mi East 10.4 mph - N/A   Clear
9:16 PM -11.2 °F - -23.8 °F 54% 30.11 in 10.0 mi Calm Calm - N/A   Clear
9:36 PM -7.6 °F -23.4 °F -25.6 °F 41% 30.10 in 10.0 mi NE 8.1 mph - N/A   Clear
9:56 PM -7.6 °F -18.8 °F -20.2 °F 54% 30.10 in 10.0 mi ENE 4.6 mph - N/A   Clear
10:16 PM -9.4 °F - -22.0 °F 54% 30.10 in 10.0 mi Calm Calm - N/A   Clear
10:36 PM -7.6 °F -16.5 °F -23.8 °F 45% 30.10 in 10.0 mi NE 3.5 mph - N/A   Clear
10:56 PM -14.8 °F -24.8 °F -29.2 °F 48% 30.09 in 10.0 mi SSE 3.5 mph - N/A   Clear
11:16 PM -14.8 °F -24.8 °F -29.2 °F 48% 30.09 in 10.0 mi SSW 3.5 mph - N/A   Clear
11:36 PM -14.8 °F -27.2 °F -29.2 °F 48% 30.09 in 10.0 mi South 4.6 mph - N/A   Clear
11:56 PM -16.6 °F -31.3 °F -23.8 °F 70% 30.09 in 10.0 mi South 5.8 mph - N/A   Clear